User: anonymous   Login
Location: Unspecified
(0.0000°N, 0.0000°E)
Time: 06:15:10
(UTC+00:00)
Language:

JB-3 - Orbit

View from above orbital plane
View from above orbital plane
View from above satellite
View from above satellite

Ground track
Ground track

The orbit data is extracted from the following two-line orbital elements,

1 28470U 04044A   18199.79945948 -.00000305  00000-0 -17977-4 0  9991
2 28470  97.3961 109.2799 0049053  76.7051 283.9638 15.02584174752507
Epoch (UTC): 18 July 2018 19:11:13
Eccentricity: 0.0049053
inclination: 97.3961°
perigee height: 525 km
apogee height: 593 km
right ascension of ascending node: 109.2799°
argument of perigee: 76.7051°
revolutions per day: 15.02584174
mean anomaly at epoch: 283.9638°
orbit number at epoch: 75250

The dashed part of the orbit path shows where the satellite is in the earth's shadow,  

DLR